Location: Exeidioux
(45.6312°N, 1.6819°E)
Time: 15:11:40
(UTC+00:00)

Helios 1A Rocket - Pass Details

Date: 03 March 2021
Orbit: 563 x 585 km, 98.3° (Epoch: 16 April)

Event Time Altitude Azimuth Distance (km) Brightness Sun altitude
Rises 19:13:00 0° 176° (S) 2,767 6.3 -16.5°
Reaches altitude 10° 19:15:11 10° 181° (S) 1,871 5.5 -16.9°
Maximum altitude 19:19:09 53° 259° (W) 703 3.7 -17.6°
Drops below altitude 10° 19:23:07 10° 337° (NNW) 1,875 5.9 -18.2°
Sets 19:25:19 0° 342° (NNW) 2,774 6.8 -18.6°
